Погода в Лёе

Таиланд     17°29′26″N   101°43′29″E
темп.,
°C
ветер,
м/с
пор.,
м/с
влажн.,
%
обл.,
%
осадки,
мм/ч
давл.,
гПа
погр.,
м
13 июня, вс
вс1301:00+23юз1192100 0.3 100533
04:00+23ююз1194100 0.5 100338
07:00+22ю1297100 1.6 100497
10:00+23ююз2597100 4.9 1005282
13:00+23ююв1398100 9.4 1004191
16:00+23ю1397100 5.7 1002189
19:00+22ю2399100 8.4 1004144
22:00+22вюв1199100 2.2 100660
14 июня, пн
пн1401:00+22ююв2297100 2.8 100570
04:00+22юв2497100 0.0 1005140
07:00+22ю1195100 0.0 100749
10:00+23ю1293100 0.1 1008152
13:00+24юв1188100 0.1 1006244
16:00+24юв118699 0.0 1004245
19:00+23з1190100 0.0 100512
22:00+23ссв008888 0.0 100712
15 июня, вт
вт1501:00+23юв009097 0.1 100613
04:00+22сз0191100 0.0 100514
07:00+23ссз119095 0.0 100652
10:00+26з1281100 0.2 1007498
13:00+25юз128695 1.1 1005422
16:00+24ю0193100 0.0 100441
19:00+23юз1192100 0.0 100515
22:00+23юз119388 0.0 100715
16 июня, ср
ср1601:00+23з119398 0.1 100617
04:00+22ссв0195100 0.1 100617
07:00+22ююв1194100 0.1 100721
10:00+26ю238086 0.0 1008520
13:00+28ююв2471100 0.0 1006717
16:00+26ююз248097 0.1 1005208
19:00+25з127973 0.1 100617
22:00+24з1183100 0.0 100814
17 июня, чт
чт1701:00+24з1185100 0.0 100819
04:00+23зсз1186100 0.0 100717
07:00+23зюз018798 0.0 100919
10:00+24з0184100 0.0 1009164
13:00+25юв128499 0.0 1008170
16:00+28з3670100 0.1 1006773
19:00+24ссз0185100 0.1 100819
22:00+23сз0087100 0.0 101016